Hourly Data Report for July 03, 2021

WIARTON A
ONTARIO
Current Station Operator: NAVCAN

44°44'39.000" N
81°06'31.000" W
221.90 m
6119499
71633
YVV

Download Data

Hourly Data (July 2021)
Hourly Data Report for July 3, 2021
TIME
LST
Temp Definition
°C
Dew Point Definition
°C
Rel Hum Definition
%
Precip. Amount Definition
mm

Wind Dir Definition
10's deg

Wind Spd Definition
km/h
Visibility Definition
km
Stn Press Definition
kPa
Hmdx Definition


Wind Chill Definition


Weather Definition


00:00 15.6 11.6 77   32 9 24.1 98.67     LegendNANA
01:00 14.0 11.7 86   26 4 24.1 98.65     Mostly Cloudy
02:00 14.2 12.8 91   24 6 24.1 98.65     LegendNANA
03:00 14.5 13.5 94   25 6 24.1 98.61     LegendNANA
04:00 14.2 13.7 96   21 7 24.1 98.60     Cloudy
05:00 13.5 13.0 97   16 4 24.1 98.60     LegendNANA
06:00 14.9 14.2 95   23 7 24.1 98.60     LegendNANA
07:00 15.7 14.1 90   24 5 24.1 98.64     Mostly Cloudy
08:00 16.7 14.8 88   21 9 24.1 98.63     LegendNANA
09:00 17.5 13.8 79   26 10 24.1 98.63     LegendNANA
10:00 18.8 13.3 70   25 11 24.1 98.59     Mainly Clear
11:00 19.8 12.2 61   26 12 24.1 98.52     LegendNANA
12:00 20.5 10.1 51   23 16 22.5 98.46     LegendNANA
13:00 22.3 9.4 43   23 9 24.1 98.39     Clear
14:00 23.3 10.4 44   27 11 24.1 98.36 25   LegendNANA
15:00 22.1 10.4 47   27 14 24.1 98.35     LegendNANA
16:00 21.3 11.4 53   25 16 24.1 98.35     Clear
17:00 21.7 10.6 49   26 10 24.1 98.32     LegendNANA
18:00 21.1 10.5 50   28 10 24.1 98.33     LegendNANA
19:00 20.3 12.1 59   26 8 24.1 98.37     Clear
20:00 18.8 11.7 63   27 5 24.1 98.37     LegendNANA
21:00 14.8 12.9 88   13 8 24.1 98.39     LegendNANA
22:00 13.7 12.0 89   9 4 24.1 98.43     Clear
23:00 13.2 12.2 94   36 2 24.1 98.46     LegendNANA

Notes on Data Quality.

Legend

  • E = Estimated
  • M = Missing
  • NA = Not Available*
  • [empty] = Indicates an unobserved value
Date modified: